Location: Boursonne
(49.2024°N, 3.0468°E)
Time: 03:59:22
(UTC+00:00)

Daily predictions for brighter satellites

Satellite Brightness Start Highest point End
(mag) Time Altitude Azimuth Time Altitude Azimuth Time Altitude Azimuth
ATLAS 3B R/B 4.3 02:52:43 29° ESE 02:52:43 29° ESE 02:58:27 10° NE
Cosmos 2322 Rocket 4.0 03:19:09 28° E 03:19:09 28° E 03:22:45 10° NE
CENTAUR R/B 4.3 03:24:31 29° N 03:24:48 29° N 03:31:54 10° ENE
Cosmos 2333 Rocket 4.1 03:33:16 18° SE 03:36:02 26° ESE 03:40:40 10° NE
H-2A R/B 4.3 03:36:32 10° NE 03:40:13 21° E 03:43:54 10° SE
Cosmos 1844 Rocket 4.3 03:44:29 26° SE 03:44:29 26° SE 03:46:51 10° SE
SL-16 R/B 3.5 03:44:54 34° NE 03:44:54 34° NE 03:48:04 10° NNE
Cosmos 1980 Rocket 4.4 03:49:11 15° NNE 03:49:11 15° NNE 03:50:15 10° NNE
USA 267 3.8 03:41:24 10° E 03:47:25 48° NNE 03:47:25 48° NNE
BREEZE-M DEB (TANK) 4.1 03:54:00 40° SE 03:54:00 40° SE 04:00:37 10° ESE
Cosmos 2278 Rocket 4.4 03:52:37 15° N 03:54:37 18° NE 03:58:21 10° ENE
COSMOS 2455 3.2 03:59:05 60° ESE 03:59:05 60° ESE 04:04:03 10° SE
Cosmos 2056 Rocket 4.3 03:59:18 49° E 03:59:18 49° E 04:03:59 10° SE
CZ-4C R/B 4.1 03:58:39 24° N 03:59:26 24° NNE 04:05:18 10° ENE
NOSS 3-1 (C) 3.6 04:07:51 58° NE 04:07:51 58° NE 04:12:47 10° NE
NOSS 3-1 (A) 3.9 04:07:42 43° SE 04:08:21 46° ESE 04:13:58 10° NE
Cosmos 1464 Rocket 4.4 04:11:59 10° S 04:17:59 59° E 04:24:07 10° NNE
ARIANE 5 R/B 3.5 04:13:59 10° NNE 04:19:00 46° E 04:24:01 10° S
Lacrosse 5 rocket 4.5 04:20:23 10° SE 04:21:52 12° ESE 04:23:21 10° E
Cosmos 1680 Rocket 3.8 04:21:35 56° SSE 04:22:24 65° ESE 04:27:38 10° NNE
Cosmos 1371 Rocket 4.1 04:22:55 77° E 04:22:55 77° E 04:28:09 10° SSE
Cosmos 1602 Rocket 4.4 04:29:49 10° SSE 04:34:04 49° E 04:38:18 10° NNE
Cosmos 2112 Rocket 4.2 04:32:37 31° S 04:35:09 71° ESE 04:40:27 10° NNE
Timation 2 Rocket 4.5 04:39:53 42° SW 04:39:53 42° SW 04:44:58 10° S
Cosmos-2242 3.7 04:41:16 46° SSE 04:41:16 46° SSE 04:44:17 10° SSE
ATLAS CENTAUR R/B 2.8 04:42:58 27° NE 04:42:58 27° NE 04:44:45 10° NE
Cosmos 1420 Rocket 3.9 04:42:05 73° WSW 04:42:05 73° WSW 04:47:14 10° SSE
Cosmos 2360 Rocket 2.1 04:40:39 50° SSW 04:42:15 87° WNW 04:47:58 10° NNE
ATLAS 3B R/B 2.7 04:40:02 46° WSW 04:42:23 78° NW 04:49:59 10° NE
CZ-2D R/B 4.2 04:40:40 10° NNE 04:44:29 48° E 04:48:16 10° S
USA 281 3.4 04:38:07 10° NNE 04:44:42 69° ESE 04:51:14 10° SSW
Cosmos 1844 4.4 04:46:15 37° SSW 04:46:15 37° SSW 04:50:03 10° S
Cosmos 2219 Rocket 2.9 04:40:56 10° S 04:46:25 54° ESE 04:51:58 10° NE
Cosmos 1513 Rocket 4.3 04:41:12 10° SSW 04:47:22 72° WNW 04:53:28 10° N
Cosmos 1624 Rocket 3.8 04:47:17 71° W 04:47:29 72° WSW 04:52:39 10° SSE
Cosmos 2034 Rocket 4.3 04:41:17 10° S 04:47:33 68° E 04:53:49 10° NNE
Cosmos 2221 4.3 04:46:09 10° N 04:49:55 30° ENE 04:53:40 10° SE
USA 215 4.3 04:48:06 10° ENE 04:54:17 43° SE 05:00:25 10° SSW
BREEZE-M R/B 4.3 04:56:23 39° W 04:59:11 60° SSW 05:03:57 10° SE
BREEZE M DEB (TANK) 3.9 04:57:25 43° W 04:59:42 82° SSW 05:21:14 10° ESE
Cosmos 1943 Rocket 4.1 04:57:06 10° N 05:01:30 23° NE 05:05:53 10° E
Cosmos 2322 Rocket 2.3 05:01:01 49° WNW 05:01:37 51° NW 05:07:11 10° NNE
SL-08 R/B 3.2 05:00:26 10° SSE 05:05:08 87° ENE 05:08:11 22° NNW
Cosmos 1782 2.8 05:05:11 38° N 05:06:34 78° E 05:10:26 10° SSE
COSMO-SKYMED 1 2.5 05:08:13 10° S 05:12:31 64° W 05:13:43 44° NW
Cosmos 2026 Rocket 4.2 05:06:51 10° N 05:13:16 78° E 05:19:37 10° SSE
CZ-3B R/B 3.5 05:12:04 34° NW 05:14:31 73° NNE 05:30:57 10° ESE
BlueWalker 3 2.5 05:15:36 41° SW 05:15:36 41° SW 05:19:12 10° SE
CENTAUR R/B 3.9 05:11:41 18° NNW 05:17:26 48° NNE 05:26:03 10° ESE
Okean 1-7 Rocket 3.6 05:14:13 10° SSW 05:18:30 51° WNW 05:22:46 10° N
SJ-12 3.9 05:15:21 10° NNE 05:19:24 82° ESE 05:23:26 10° SSW
Cosmos 2195 Rocket 4.4 05:13:15 10° N 05:19:28 83° W 05:25:36 10° S
COSMOS 2428 3.6 05:14:06 10° S 05:19:36 52° ESE 05:25:08 10° NE
Cosmos 2333 Rocket 2.2 05:15:25 17° SW 05:19:53 62° WNW 05:25:38 10° NNE
H-2A R/B 1.9 05:15:10 10° N 05:19:59 57° WNW 05:24:49 10° SSW
PSLV R/B 4.1 05:17:38 10° NNE 05:21:55 61° ESE 05:26:10 10° S
Cosmos 1844 Rocket 4.2 05:26:12 18° SW 05:26:12 18° SW 05:28:36 10° SSW
Cosmos 1110 Rocket 4.2 05:21:52 14° NNW 05:26:34 73° ENE 05:31:52 10° SSE
Cosmos 1092 Rocket 3.9 05:20:46 10° N 05:27:00 84° W 05:33:15 10° S
SL-16 R/B 3.1 05:26:47 27° NW 05:27:01 27° NW 05:31:51 10° NNE
Cosmos 1867 4.3 05:26:37 30° WNW 05:27:39 33° NW 05:32:35 10° NNE
SeaSat 1 3.6 05:24:23 10° ESE 05:28:55 39° NE 05:33:29 10° NNW
Nadezhda 4 Rocket 4.2 05:24:01 10° NNW 05:29:49 45° W 05:35:37 10° SSW
USA 267 3.3 05:23:44 10° ESE 05:30:17 82° NNE 05:34:45 23° NW
Cosmos 1980 Rocket 4.2 05:30:57 12° NNW 05:30:57 12° NNW 05:32:50 10° N
Cosmos 1812 Rocket 4.0 05:30:44 35° WNW 05:31:37 39° W 05:35:45 10° SSW
SL-08 RB Rocket 4.0 05:28:32 10° NNE 05:33:08 72° ESE 05:37:45 10° S
Cosmos 1825 Rocket 3.4 05:32:31 10° S 05:36:54 83° W 05:41:16 10° N
Cosmos 1634 Rocket 4.1 05:32:26 10° S 05:38:37 83° E 05:44:53 10° N
Cosmos 1544 4.3 05:35:52 10° SSE 05:38:51 38° E 05:41:53 10° NNE
Cosmos 2278 Rocket 2.5 05:34:28 11° NNW 05:39:50 67° ENE 05:45:27 10° SE
Cosmos 2151 4.1 05:35:56 10° SSE 05:39:54 44° E 05:43:56 10° NNE
Cosmos 2056 Rocket 4.4 05:39:39 26° W 05:40:37 28° W 05:45:03 10° SSW
COSMOS 2455 3.9 05:42:17 22° W 05:43:23 23° WSW 05:48:00 10° SSW
ARGOS 3.1 05:38:54 10° NNE 05:44:19 78° WNW 05:49:40 10° SSW
Cosmos 1758 Rocket 4.1 05:41:13 10° SW 05:45:07 32° WNW 05:49:02 10° N
Meteor 2-3 Rocket 3.6 05:39:44 10° SSW 05:45:16 65° WNW 05:50:51 10° N
NOAA 12 4.0 05:41:03 10° N 05:46:20 71° WNW 05:51:33 10° SSW
USA 229 DEB 3.5 05:42:32 10° SW 05:48:47 89° NW 05:55:42 10° NE
USA 229 3.6 05:42:35 10° SW 05:48:51 89° NW 05:55:45 10° NE
CZ-4C R/B 3.6 05:43:47 13° NW 05:49:33 46° NE 05:57:24 10° ESE
Cosmos 1515 3.4 05:46:22 10° NNW 05:50:00 80° W 05:53:36 10° S
Cosmos 2237 Rocket 3.9 05:44:53 10° S 05:50:02 37° ESE 05:55:11 10° NE
Cosmos 494 Rocket 3.8 05:45:39 10° SSW 05:50:45 73° WNW 05:55:54 10° NNE
Cosmos 1939 Rocket 4.0 05:49:29 10° NNW 05:51:56 22° NW 05:51:56 22° NW
DELTA 2 DEB (DPAF) 4.0 05:50:46 10° SSE 05:55:03 80° WSW 05:59:23 10° NNW
Cosmos 2322 3.6 05:49:31 10° SW 05:55:12 74° WNW 06:00:55 10° NNE
Cosmos 1933 4.0 05:55:24 18° NW 05:57:44 33° W 06:01:17 10° SSW
ARIANE 5 R/B 3.3 05:53:25 10° N 05:57:53 30° WNW 06:02:21 10° WSW
NOSS 3-1 (C) 4.2 05:55:15 20° WNW 05:58:15 31° NNW 06:04:03 10° NE
Cosmos 1452 Rocket 3.6 05:53:35 12° NNW 05:58:25 58° WSW 06:03:33 10° S
NOSS 3-1 (A) 3.7 05:55:11 16° W 05:59:13 43° NNW 06:05:21 10° NE
Lacrosse 5 rocket 1.9 05:55:28 10° SW 05:59:41 62° SE 06:04:01 10° ENE
CZ-2D R/B 3.0 05:57:22 10° N 06:01:01 72° WNW 06:04:40 10° SSW
SJ-7 4.4 05:57:35 10° NNE 06:01:42 86° ESE 06:05:48 10° SSW
Cosmos 2279 Rocket 4.1 05:59:39 10° S 06:05:55 87° E 06:12:14 10° N
Aureole 2 4.2 06:08:19 13° NNW 06:11:07 59° WSW 06:14:05 10° S
CZ-2C R/B 2.6 06:08:08 10° N 06:11:54 78° WNW 06:15:40 10° SSW
Cosmos 1666 3.4 06:10:04 10° S 06:13:31 53° E 06:16:59 10° NNE
Geosat 4.5 06:09:03 10° NNE 06:13:42 39° NW 06:18:19 10° WSW
Cosmos 1076 Rocket 3.5 06:13:53 10° S 06:18:10 88° W 06:22:32 10° N
ATLAS CENTAUR R/B 2.8 06:18:20 14° NW 06:19:36 16° NNW 06:22:00 10° N
Spot 4 Rocket 4.4 06:15:03 10° N 06:19:53 42° WNW 06:24:42 10° SW
Cosmos 1862 3.6 06:16:16 10° SSW 06:19:55 41° WNW 06:23:36 10° N
SMAP 3.1 06:18:34 10° NNE 06:23:16 89° ESE 06:27:55 10° SSW
ERS-2 2.4 06:21:51 10° N 06:24:28 29° WNW 06:27:03 10° SW
Helios 1B rocket 2.6 06:21:12 10° N 06:25:01 45° WNW 06:28:48 10° SW
Cosmos 2360 Rocket 3.4 06:22:47 10° W 06:27:05 22° NW 06:31:23 10° N
Cosmos 2221 3.4 06:23:36 10° NNW 06:27:15 29° W 06:30:54 10° SSW
CZ-4B R/B 3.8 06:23:33 10° NNE 06:27:27 90° NNW 06:31:31 10° SSW
Cosmos 1953 Rocket 4.0 06:24:03 10° SW 06:28:16 41° WNW 06:32:33 10° N
USA 281 3.9 06:23:05 10° NNE 06:28:47 32° NW 06:34:27 10° WSW
Cosmos 1048 Rocket 4.2 06:24:29 10° SW 06:29:25 45° WNW 06:34:21 10° NNE
Cosmos 1378 3.0 06:26:14 10° NNW 06:29:39 54° W 06:33:02 10° S
Meteor 1-31 Rocket 2.6 06:26:40 10° NNE 06:30:27 81° WNW 06:34:14 10° SSW
Cosmos 2219 Rocket 2.9 06:25:36 10° WSW 06:30:40 32° NW 06:35:46 10° NNE
ATLAS 3B R/B 3.6 06:27:50 10° W 06:34:19 33° NNW 06:41:09 10° NE
CZ-4C R/B 3.4 06:30:23 10° S 06:34:30 77° WSW 06:38:45 10° NNW
USA 215 3.3 06:31:04 10° NE 06:37:35 76° NNW 06:44:06 10° WSW
CZ-3 R/B 4.1 06:34:51 10° WSW 06:39:57 14° SSW 06:43:18 10° S
Elektron 3 4.4 06:37:30 10° NW 06:40:20 56° NE 06:44:21 10° ESE
SAR-Lupe-2 4.3 06:38:09 10° N 06:41:21 31° WNW 06:44:33 10° SW
Cosmos 1500 3.3 06:40:52 10° SSW 06:44:17 44° WNW 06:47:43 10° N
SL-16 R/B 4.3 06:39:42 10° SSE 06:44:41 32° ESE 06:49:41 10° NE
Cosmos 1943 Rocket 2.2 06:40:20 10° NNW 06:45:55 80° WSW 06:51:25 10° SSE
Cosmos 2322 Rocket 3.8 06:43:57 10° WNW 06:47:05 15° NNW 06:50:15 10° N
Cosmos 1151 Rocket 3.7 06:46:44 10° N 06:51:00 59° ENE 06:55:16 10° SSE
